Regional Weather Roundup
Issued by NWS Goodland, KS

Home | Current Version | Previous Version | Text Only | Print | Product List | Glossary On
Versions: 1 2 3 4 5 6 7 8 9 10 11 12 13 14 15 16 17 18 19 20 21 22 23 24 25 26 27 28 29 30 31 32 33 34 35 36 37 38 39 40 41 42 43 44 45 46 47 48 49 50
000
ASUS43 KGLD 212008
RWRGLD

GOODLAND FORECAST AREA HOURLY WEATHER ROUNDUP
NATIONAL WEATHER SERVICE GOODLAND KS
200 PM MDT SAT OCT 21 2017

...OFFICIAL OBSERVATIONS...

CITY           SKY/WX    TMP DP  RH WIND       PRES   REMARKS
GOODLAND KS    SUNNY     61  21  21 N24G38    29.94R
HILL CITY KS   CLOUDY    62  36  37 N29G39    29.92R
IMPERIAL NEB   SUNNY     62  23  22 NW18G28   29.93R
MCCOOK NEB     MOSUNNY   62  32  32 N17G26    29.91F
AKRON CO       MOSUNNY   55  14  19 W29G36    29.98S
BURLINGTON CO  SUNNY     59  17  19 N24G43    29.97S
LIMON CO       SUNNY     54   4  13 NW24G37   30.01R
$$

...UNOFFICIAL OBSERVATIONS...

CITY           SKY/WX    TMP DP  RH WIND       PRES   REMARKS
COLBY KS       PTSUNNY   61  32  33 NW21G29   29.94R
LENORA KS        N/A     59  32  36 NW14        N/A
NORTON KS      CLOUDY    59  28  31 N17G33    29.90R
SHARON SPRINGS   N/A     61  25  25 N23G33      N/A
TRENTON NEB      N/A     61  32  33 NW14        N/A
YUMA CO        FAIR      55  19  24 W25G35    29.97R
$$




USA.gov is the U.S. government's official web portal to all federal, state and local government web resources and services.